Wind_Speed
32 32 31 26 19 25 20 23 18 17 17 21 29 37 39 37 37 17 33 27 25 26 25 23 24 14 21 5 7 13 15 9 12 15 16 12 13 14 13 6 5 9 6 23
26 26 28 30 33 30 27 23 21 18 15 23 28 32 34 34 36 30 24 22 20 25 27 25 22 25 15 11 19 10 8 8 4 2 6 9 13 17 14 6 8 13 6 17
19 19 21 24 27 29 24 26 21 23 21 25 24 27 32 34 33 33 31 31 19 18 22 27 31 27 25 29 16 18 16 16 16 13 14 17 22 22 16 22 13 18 32 39
21 20 19 18 18 24 28 25 27 24 19 29 30 29 28 27 30 30 26 29 34 24 20 26 25 27 33 24 16 24 19 24 26 27 24 24 30 35 31 27 28 21 44 40
23 22 21 19 19 19 23 29 29 27 25 20 25 27 33 31 27 26 25 22 26 37 32 32 30 24 20 23 27 20 21 23 21 24 24 25 36 34 33 33 33 35 40 48
24 23 22 21 20 20 22 24 27 23 23 23 28 32 30 29 29 31 30 24 25 27 28 31 31 36 30 26 25 25 23 24 27 26 24 25 29 24 24 27 24 23 30 31
26 25 24 23 21 21 21 23 27 27 34 28 29 30 31 31 28 32 25 23 29 27 30 32 35 35 34 28 26 28 23 23 19 13 13 9 20 21 15 21 22 20 20 16
27 26 25 25 24 24 24 23 21 22 31 27 26 22 23 25 29 31 28 27 25 25 30 31 26 26 24 26 28 29 29 29 21 15 17 24 32 34 14 7 13 19 20 22
28 29 27 26 26 26 26 24 22 23 28 29 27 30 22 24 22 24 32 29 17 24 26 20 4 4 10 8 6 11 19 28 30 19 9 5 12 10 7 19 24 15 11 8
29 29 28 27 26 26 26 24 21 27 34 34 27 19 22 25 20 23 17 20 26 21 25 22 17 19 18 10 13 18 17 14 25 28 18 16 30 21 19 9 6 6 9 17
29 30 29 26 25 25 27 25 28 31 38 42 33 31 28 24 23 25 22 22 28 23 28 20 14 14 16 16 24 22 21 14 19 17 12 13 22 15 15 10 13 15 20 13
30 30 28 24 24 24 25 26 29 35 32 27 31 30 30 29 23 27 24 28 11 24 21 22 18 18 18 19 21 18 20 25 18 18 12 12 13 15 13 17 21 18 22 15
26 25 26 26 26 27 28 27 30 32 39 35 38 38 24 32 23 23 27 28 18 19 19 21 21 20 17 18 21 23 26 26 17 13 16 25 21 20 25 22 22 16 15 18
24 25 25 26 29 28 30 30 28 26 33 31 35 33 36 25 35 24 29 32 25 22 21 20 20 20 19 21 22 23 19 20 22 27 20 15 10 12 11 15 17 17 16 15
25 25 25 27 28 30 33 35 31 26 27 16 26 33 31 25 20 18 20 29 26 26 24 25 24 24 26 30 31 34 29 29 23 23 20 21 20 18 19 22 21 22 20 18
24 24 25 28 29 29 31 33 35 30 32 34 22 10 26 20 18 21 23 26 26 29 29 30 31 33 30 21 31 37 35 28 21 23 19 24 23 22 20 18 11 13 17 16
23 23 24 27 28 29 34 32 31 33 22 22 12 9 14 21 21 22 25 26 28 27 31 37 39 38 29 34 41 37 31 22 21 24 26 27 22 18 15 16 19 17 16 16
23 22 22 22 26 28 31 22 19 24 24 22 9 10 13 18 18 21 20 21 22 28 25 28 34 31 29 32 33 30 25 22 21 20 21 18 16 15 15 18 20 19 20 20
21 24 16 17 25 33 28 33 11 26 20 13 11 15 12 9 11 14 18 14 21 25 28 32 27 26 25 31 28 24 20 16 14 14 14 16 18 20 21 20 19 20 20 19
20 15 24 30 27 21 27 23 24 31 28 25 19 16 15 14 13 13 13 12 17 17 23 22 30 40 37 37 34 34 28 23 22 21 18 20 22 23 22 23 22 21 20 19
26 17 26 20 25 27 14 12 19 14 13 20 26 22 22 21 17 15 9 10 7 9 19 21 22 36 36 26 23 24 25 22 21 19 19 21 22 22 22 20 20 17 11 11
33 36 36 29 28 9 7 11 8 8 11 10 10 11 22 23 20 16 11 14 7 8 9 10 13 24 21 16 9 9 11 12 15 18 20 23 22 21 18 19 20 10 9 9
34 37 31 18 15 10 8 12 9 10 9 8 8 11 13 16 19 16 8 8 10 8 9 7 13 11 13 10 8 10 15 16 17 19 20 20 19 18 17 19 19 19 14 12
27 18 13 11 7 7 11 13 14 12 9 10 11 9 7 14 16 12 8 11 13 9 10 15 12 11 13 12 11 10 12 14 16 16 14 13 12 12 12 15 17 18 16 15
13 7 7 8 7 9 9 11 13 14 16 17 13 14 20 21 14 13 10 6 8 8 10 9 6 10 12 10 8 8 9 9 8 8 9 10 10 10 10 12 13 15 17 17
7 7 6 7 9 12 12 10 9 14 16 17 17 18 10 12 8 9 11 8 8 10 10 10 7 7 9 8 7 7 7 6 6 6 7 8 9 9 9 9 10 12 13 14
10 12 16 12 9 9 9 11 13 17 18 20 16 10 11 7 7 9 11 18 14 8 6 5 8 8 7 7 7 7 6 6 6 6 7 8 9 9 9 8 8 9 9 10
Wind_Direction
231 230 229 222 209 234 235 237 243 237 236 222 223 230 238 248 249 251 241 250 258 265 271 270 263 293 251 203 257 242 241 253 253 249 254 252 243 260 260 248 247 246 262 265
225 225 226 224 222 233 235 240 241 236 234 230 236 244 247 249 253 255 241 250 260 265 264 265 265 264 269 252 269 282 257 251 249 245 270 272 273 260 242 235 280 262 253 256
213 215 219 223 221 222 231 239 238 237 235 245 248 251 252 256 259 260 247 244 252 250 262 264 261 260 255 263 259 291 293 277 270 263 277 281 277 272 271 291 278 279 263 275
219 218 217 215 212 212 221 234 237 237 222 240 253 253 254 259 260 258 260 250 246 246 258 258 258 260 260 259 267 265 278 274 281 285 280 279 276 278 281 282 279 253 275 272
222 224 224 225 223 215 218 226 234 239 242 245 248 249 252 250 261 265 264 256 261 247 250 249 261 271 268 272 261 270 273 264 266 269 275 280 280 278 279 281 278 271 276 278
228 225 227 227 226 226 234 236 230 242 242 239 247 252 261 268 274 269 263 249 255 254 255 254 258 262 271 278 272 269 259 257 273 274 277 280 277 282 283 288 283 277 273 280
234 233 234 235 235 236 238 243 234 238 241 253 252 259 270 268 264 269 265 249 247 250 253 254 255 263 263 268 271 262 265 267 259 262 268 253 268 280 274 276 284 276 259 273
236 236 236 238 241 241 242 244 227 238 249 249 245 251 268 265 258 251 253 241 256 265 272 262 251 243 256 265 264 260 255 252 252 247 249 267 279 281 288 281 294 268 266 276
237 239 240 240 242 242 241 244 231 232 242 250 256 261 263 250 242 252 244 241 241 255 255 251 229 228 253 258 254 256 253 251 249 243 245 259 260 256 260 301 288 293 273 279
240 241 242 243 243 242 242 241 228 234 244 251 249 249 258 239 238 248 260 252 237 243 219 236 246 274 262 251 259 270 266 264 236 239 241 259 267 268 270 261 281 332 300 297
247 249 250 248 244 239 243 240 226 215 239 246 241 257 247 241 251 242 255 257 245 250 248 259 273 240 256 258 263 264 263 255 249 226 228 254 278 253 232 258 290 294 309 289
254 251 248 237 230 224 233 238 226 224 225 252 247 247 243 255 264 247 251 243 212 227 239 249 245 246 254 265 271 281 257 241 243 230 245 234 241 249 259 281 291 295 291 291
244 235 228 225 226 224 229 235 225 226 226 241 246 246 256 252 255 247 245 244 237 237 252 252 251 247 256 249 261 263 270 266 256 249 254 255 245 247 268 283 302 293 288 279
232 228 223 221 222 221 222 229 226 224 228 247 251 245 247 250 238 239 239 237 242 244 250 258 263 264 269 264 268 271 265 285 303 308 313 314 288 276 287 271 278 295 289 267
226 221 218 216 215 213 219 225 221 215 222 248 255 250 239 237 240 260 233 229 236 242 251 256 263 268 274 276 274 270 273 283 287 284 286 284 284 280 283 288 285 280 267 266
211 207 209 208 209 212 220 228 213 205 224 242 244 241 239 232 231 237 241 247 246 249 253 257 262 269 274 269 270 272 277 283 286 284 273 270 281 292 293 282 288 270 282 254
204 205 206 209 213 217 215 217 216 214 224 220 181 196 226 228 235 240 245 245 245 254 256 258 259 265 265 268 271 276 284 293 274 269 273 274 282 284 277 281 291 282 274 265
203 208 214 214 208 211 218 195 215 228 214 207 198 205 207 218 231 234 243 246 248 252 259 258 256 260 259 266 272 285 292 276 266 264 268 270 279 287 286 286 284 274 264 263
210 177 167 200 208 208 204 200 180 184 192 192 204 210 214 223 234 240 239 243 243 249 256 257 259 258 245 269 281 287 282 282 274 290 275 287 289 286 292 295 290 280 270 265
197 192 180 193 200 202 195 209 202 199 213 218 222 220 235 241 256 261 245 247 235 246 250 258 252 262 270 274 273 269 266 266 269 284 274 279 284 285 290 294 293 285 265 253
196 213 170 200 192 178 167 168 183 196 212 230 238 244 248 248 250 251 247 236 237 248 258 246 258 263 271 275 265 252 248 257 263 265 274 278 282 285 283 279 280 279 258 242
180 172 155 165 172 176 170 177 187 203 214 231 229 239 236 236 243 243 250 256 249 242 239 224 251 262 275 275 274 252 244 245 266 275 279 283 284 285 278 264 278 268 262 273
155 152 157 171 172 191 196 199 185 200 215 244 282 240 236 227 231 221 228 238 254 228 211 227 239 244 239 228 229 246 252 258 270 277 279 281 283 283 271 264 269 257 257 273
160 147 163 180 197 201 221 222 225 234 251 251 239 243 233 232 221 208 216 233 251 249 241 266 270 234 216 220 233 245 262 269 272 276 279 284 287 289 277 264 265 273 276 279
168 169 193 214 213 218 236 251 241 238 236 237 246 258 252 238 205 206 213 223 228 230 237 239 223 223 221 226 242 260 264 270 278 287 291 290 289 288 282 272 266 266 268 265
190 212 223 233 246 251 246 246 238 235 237 241 246 257 259 229 202 193 198 209 224 237 254 250 229 215 214 228 243 256 264 271 282 295 301 302 300 295 289 281 273 269 268 267
225 239 245 249 248 236 257 262 257 249 243 242 243 240 212 209 209 213 211 225 234 239 233 228 225 229 222 235 247 252 257 263 270 284 301 312 312 304 296 291 286 279 272 268
Height
3019 3025 3028 3035 3036 3040 3044 3044 3048 3052 3055 3056 3055 3054 3056 3060 3062 3065 3067 3068 3067 3067 3070 3071 3072 3069 3065 3065 3067 3066 3065 3063 3063 3064 3065 3068 3066 3066 3065 3064 3063 3061 3060 3048
3014 3018 3021 3027 3031 3035 3040 3041 3044 3047 3050 3048 3048 3050 3053 3055 3057 3059 3063 3063 3064 3064 3064 3067 3068 3065 3066 3066 3065 3064 3063 3060 3060 3060 3063 3062 3064 3063 3062 3062 3061 3059 3060 3046
3011 3012 3016 3020 3025 3030 3034 3037 3040 3042 3043 3042 3044 3046 3048 3050 3052 3052 3057 3059 3060 3060 3059 3060 3060 3061 3059 3061 3062 3061 3062 3059 3057 3057 3060 3061 3062 3061 3061 3060 3060 3058 3049 3043
3006 3009 3013 3017 3020 3023 3029 3031 3033 3036 3037 3038 3039 3040 3042 3044 3045 3048 3051 3052 3054 3057 3054 3055 3055 3056 3055 3055 3055 3057 3057 3053 3054 3053 3054 3055 3054 3052 3053 3052 3052 3052 3037 3039
3001 3004 3008 3012 3015 3018 3021 3023 3027 3031 3033 3036 3036 3035 3034 3039 3042 3045 3045 3048 3048 3050 3049 3050 3051 3051 3052 3050 3051 3051 3051 3049 3050 3048 3049 3049 3045 3045 3044 3043 3041 3040 3034 3024
2995 2999 3002 3006 3009 3012 3013 3018 3023 3026 3027 3029 3030 3030 3032 3034 3038 3038 3039 3042 3042 3043 3045 3046 3046 3045 3045 3046 3044 3045 3047 3047 3046 3042 3044 3043 3036 3036 3036 3033 3033 3032 3027 3022
2989 2993 2997 3000 3003 3006 3009 3013 3019 3021 3020 3023 3023 3025 3027 3029 3032 3032 3035 3036 3037 3038 3037 3038 3038 3038 3038 3039 3038 3041 3042 3043 3043 3041 3040 3036 3029 3030 3029 3026 3025 3025 3023 3022
2983 2987 2990 2993 2997 3001 3004 3008 3011 3013 3013 3016 3018 3020 3022 3024 3025 3027 3026 3029 3032 3032 3032 3032 3031 3031 3031 3031 3033 3034 3035 3037 3037 3036 3034 3028 3026 3026 3025 3021 3019 3018 3018 3018
2976 2979 2984 2987 2991 2995 2998 3001 3005 3008 3010 3007 3014 3017 3018 3017 3019 3020 3020 3026 3027 3027 3027 3026 3024 3025 3026 3027 3027 3026 3025 3028 3030 3030 3029 3024 3021 3021 3020 3019 3015 3014 3014 3012
2968 2972 2976 2980 2984 2988 2991 2995 2999 3004 3003 3003 3009 3009 3010 3014 3015 3015 3017 3020 3021 3022 3019 3020 3022 3023 3025 3023 3023 3024 3022 3021 3021 3021 3022 3017 3014 3019 3018 3017 3017 3011 3010 3009
2960 2964 2968 2972 2976 2980 2983 2988 2993 2998 2997 2997 3002 3005 3008 3009 3011 3011 3014 3016 3014 3017 3018 3018 3018 3018 3019 3018 3018 3018 3018 3018 3015 3017 3017 3014 3010 3012 3012 3011 3008 3007 3005 3003
2952 2956 2959 2964 2969 2973 2977 2981 2986 2990 2993 2993 2997 3000 3003 3004 3006 3007 3008 3009 3011 3013 3013 3014 3015 3015 3013 3013 3011 3012 3012 3013 3011 3011 3007 3006 3006 3007 3006 3005 3003 3003 3001 3000
2943 2947 2952 2958 2963 2967 2970 2975 2981 2985 2987 2988 2989 2991 2998 2998 3000 3002 3004 3004 3007 3008 3010 3011 3010 3009 3009 3009 3007 3007 3006 3004 3002 2999 3000 2998 2999 3001 3001 3000 2998 2997 2996 2996
2937 2942 2947 2952 2957 2962 2966 2968 2975 2979 2982 2984 2983 2987 2987 2993 2994 2996 2997 3001 3003 3005 3006 3005 3005 3006 3005 3004 3003 3001 3002 2999 2999 2996 2996 2996 2996 2996 2995 2994 2993 2992 2992 2992
2932 2937 2942 2947 2951 2956 2959 2963 2969 2974 2983 2980 2978 2980 2984 2986 2988 2991 2992 2995 2999 3000 3000 3000 3001 3001 3002 2999 2997 2992 2997 2996 2995 2992 2993 2991 2990 2990 2989 2987 2986 2986 2985 2986
2928 2933 2938 2942 2947 2952 2955 2958 2963 2967 2973 2977 2976 2976 2979 2982 2985 2987 2990 2993 2994 2994 2994 2995 2994 2995 2997 2993 2987 2985 2988 2989 2989 2987 2986 2984 2983 2983 2982 2981 2980 2979 2979 2979
2925 2930 2934 2939 2943 2946 2948 2953 2958 2965 2968 2971 2972 2974 2974 2977 2980 2982 2984 2985 2986 2987 2986 2985 2987 2987 2989 2985 2978 2977 2981 2983 2982 2980 2979 2978 2978 2977 2976 2975 2975 2973 2973 2973
2923 2927 2931 2935 2939 2943 2945 2953 2957 2961 2965 2967 2969 2970 2973 2974 2976 2978 2978 2978 2979 2978 2979 2978 2977 2980 2979 2975 2969 2971 2973 2973 2972 2973 2973 2972 2972 2972 2972 2970 2969 2968 2968 2968
2920 2924 2929 2932 2933 2937 2943 2949 2953 2959 2963 2961 2963 2966 2969 2971 2972 2973 2974 2974 2973 2974 2972 2971 2973 2970 2967 2963 2965 2966 2966 2966 2967 2967 2967 2967 2966 2966 2965 2964 2963 2962 2961 2961
2918 2921 2925 2927 2932 2942 2947 2950 2953 2955 2956 2957 2959 2962 2966 2969 2969 2969 2971 2969 2969 2966 2967 2967 2963 2957 2957 2958 2958 2958 2959 2960 2961 2961 2962 2961 2960 2960 2959 2957 2956 2954 2954 2954
2914 2919 2926 2929 2933 2940 2944 2946 2949 2951 2952 2952 2955 2960 2961 2964 2965 2966 2966 2964 2963 2961 2960 2959 2954 2946 2947 2950 2948 2949 2952 2954 2955 2955 2955 2955 2954 2954 2952 2951 2950 2949 2947 2948
2913 2921 2925 2929 2933 2936 2940 2943 2946 2946 2949 2949 2951 2953 2955 2957 2959 2960 2961 2961 2959 2955 2954 2952 2945 2941 2942 2944 2943 2944 2946 2948 2949 2950 2949 2948 2948 2947 2946 2946 2946 2946 2946 2946
2922 2927 2929 2931 2936 2937 2938 2937 2939 2942 2943 2945 2946 2948 2950 2951 2955 2956 2958 2956 2953 2949 2946 2944 2939 2938 2939 2940 2941 2942 2944 2945 2945 2945 2944 2943 2942 2941 2940 2941 2941 2942 2943 2943
2924 2927 2930 2933 2933 2933 2934 2934 2937 2939 2940 2942 2945 2946 2947 2947 2949 2951 2951 2949 2948 2944 2941 2938 2938 2936 2937 2938 2939 2940 2940 2941 2941 2940 2939 2938 2937 2937 2936 2936 2937 2937 2938 2938
2926 2929 2930 2930 2931 2931 2932 2933 2935 2936 2938 2940 2942 2942 2942 2941 2942 2942 2944 2943 2939 2935 2932 2933 2933 2933 2935 2936 2937 2937 2937 2937 2937 2936 2936 2935 2935 2934 2933 2933 2933 2933 2933 2934
2927 2928 2927 2927 2928 2929 2930 2931 2932 2933 2935 2936 2938 2938 2937 2934 2933 2932 2933 2933 2931 2929 2930 2930 2931 2932 2933 2934 2934 2935 2935 2935 2935 2934 2934 2933 2932 2932 2931 2930 2930 2929 2929 2929
2925 2925 2925 2926 2927 2927 2927 2927 2928 2929 2930 2931 2933 2931 2928 2928 2926 2927 2926 2925 2926 2927 2927 2928 2929 2930 2930 2931 2932 2932 2932 2933 2933 2933 2932 2931 2930 2929 2928 2928 2927 2927 2927 2926